Regional Weather Roundup
Issued by NWS

Home | Current Version | Previous Version | Text Only | Print | Product List | Glossary Off
Versions: 1 2 3 4 5 6 7 8 9 10 11 12 13 14 15 16 17 18 19 20 21 22 23 24 25 26 27 28 29 30 31 32 33 34 35 36 37 38 39 40 41 42 43 44 45 46 47 48 49 50

219
ASUS45 KSLC 290910
RWRUT

UTAH REGIONAL WEATHER ROUNDUP
NATIONAL WEATHER SERVICE SALT LAKE CITY UT
300 AM MDT MON MAY 29 2017

UTZ001>011-023>025-291000-

NORTHERN UTAH

CITY           SKY/WX    TMP DP  RH WIND       PRES   REMARKS
BRIGHAM CITY   CLEAR     55  40  57 CALM      30.15F
HILL AFB       CLEAR     55  36  48 E12       30.16S
LOGAN          CLEAR     51  40  65 CALM      30.18F
OGDEN          CLEAR     57  38  48 NW3       30.14F
SALT LAKE CITY CLEAR     59  39  47 SW3       30.13F
TOOELE VALLEY  CLEAR     46  37  71 SE6       30.15S
WENDOVER       CLEAR     59  33  37 CALM      30.15S
HEBER CITY     CLEAR     39  34  81 CALM      30.22S
WEST JORDAN    CLEAR     55  41  60 CALM      30.16S

$$

UTZ011>015-024>027-291000-

CENTRAL/NORTHEAST UTAH

CITY           SKY/WX    TMP DP  RH WIND       PRES   REMARKS
PROVO AIRPORT  CLEAR     52  35  52 E5        30.16
MOAB/CANYONLAN CLEAR     52  14  22 W5        30.10F
DELTA          CLEAR     52  30  43 CALM      30.16S
PRICE          CLEAR     53  28  38 N5        30.19F
ROOSEVELT      CLEAR     45  36  70 SW8       30.20F
VERNAL         CLEAR     53  29  39 N7        30.19S

$$

UTZ013>016-019>022-027-291000-

SOUTHERN UTAH

CITY           SKY/WX    TMP DP  RH WIND       PRES   REMARKS
BRYCE CANYON   CLEAR     39  25  57 W10       30.30F WCI  32
CEDAR CITY     CLEAR     48  23  37 CALM      30.17S
MILFORD        CLEAR     46  18  32 CALM      30.16S
ST GEORGE      SUNNY     71  23  16 N6        29.99S
HANKSVILLE     CLEAR     48   9  20 CALM      30.13S
BLANDING       CLEAR     54  16  22 N10       30.25S

$$

REGIONAL REPORTS     COLORADO/ARIZONA

CITY           SKY/WX    TMP DP  RH WIND       PRES   REMARKS
CRAIG, CO      CLEAR     36  32  85 CALM      30.27R
GRAND JUNCTION CLEAR     58  29  33 SE8       30.15R
RIFLE, CO      CLEAR     48  28  46 CALM      30.23S
MONTROSE, CO   CLEAR     50  22  33 SE10      30.22F
CORTEZ, CO     CLEAR     37  29  72 SE6       30.20S WCI  32
COLORADO CITY    N/A     68  25  19 CALM      30.13S
PAGE, AZ       CLEAR     64  22  20 CALM      30.08S
GRAND CANYON   PTCLDY    52  23  32 E6        30.22S
KINGMAN, AZ    CLEAR     60  18  19 MISG      29.97F
FLAGSTAFF, AZ  CLEAR     41  22  46 CALM      30.24S

$$

REGIONAL REPORTS    NEVADA/IDAHO/WYOMING

CITY           SKY/WX    TMP DP  RH WIND       PRES   REMARKS
LAS VEGAS, NV  CLEAR     76  17  11 S3        29.88F
ELY, NY        CLEAR     38  23  55 S10       30.24F WCI  31
ELKO, NV       CLEAR     47  36  65 W3        30.18S
POCATELLO, ID  CLEAR     47  39  74 NE5       30.20S
BURLEY, ID     CLEAR     51  42  71 N3        30.15S
EVANSTON, WY   CLEAR     47  31  53 S6        30.29F
ROCK SPRINGS,  CLEAR     43  36  76 E7        30.32S
KEMMERER, WY     N/A     45  34  65 NE13G20   30.33S

$$




USA.gov is the U.S. government's official web portal to all federal, state and local government web resources and services.